CW2551 Weather Reports


Display with metric or nautical units.
time (UTC)temp
F
wind
direction
speed
MPH
gust
MPH
rain 1hr
in
rain 24hr
in
rain mn
in
humidity
%
barometer
mb
20260906082021 55 148 0.0 0.0 0.00 0.10 0.00 90 1014.8
20260906081604 55 148 0.0 0.0 0.00 0.10 0.00 90 1014.8
20260906081104 55 148 0.0 0.0 0.00 0.10 0.00 90 1014.8
20260906081020 56 148 0.0 0.0 0.00 0.10 0.00 90 1014.7
20260906080604 56 148 0.0 0.0 0.00 0.10 0.00 90 1014.7
20260906080104 56 148 0.0 0.0 0.00 0.10 0.00 90 1014.7
20260906080020 56 148 0.0 0.0 0.00 0.10 0.00 90 1014.7
20260906075104 56 148 0.0 0.0 0.00 0.10 0.00 90 1014.7
20260906074604 56 148 0.0 0.0 0.00 0.10 0.00 90 1014.8
20260906074104 56 148 0.0 0.0 0.00 0.10 0.00 90 1014.8
20260906074021 56 148 0.0 0.0 0.00 0.10 0.00 90 1014.8
20260906073604 56 148 0.0 0.0 0.00 0.10 0.00 90 1014.8
20260906073104 56 148 0.0 0.0 0.00 0.10 0.00 90 1014.8
20260906073020 57 148 0.0 0.0 0.00 0.10 0.00 90 1014.8
20260906072604 57 148 0.0 0.0 0.00 0.10 0.00 90 1014.8
20260906072104 57 148 0.0 0.0 0.00 0.10 0.00 90 1014.9
20260906072020 57 148 0.0 0.0 0.01 0.10 0.00 90 1015.0
20260906071604 57 148 0.0 0.0 0.01 0.10 0.00 90 1015.0
20260906071104 57 148 0.0 0.0 0.01 0.10 0.00 90 1015.0
20260906070604 57 148 0.0 0.0 0.01 0.10 0.00 90 1014.9
20260906070103 57 148 0.0 0.0 0.01 0.10 0.00 90 1014.8
20260906070020 57 148 0.0 0.0 0.01 0.10 0.10 90 1014.8
20260906065603 57 148 0.0 0.0 0.01 0.10 0.10 90 1014.8
20260906065104 57 148 0.0 0.0 0.01 0.10 0.10 90 1014.8
20260906065022 57 148 0.0 0.0 0.01 0.10 0.10 90 1014.8
20260906064604 57 148 0.0 0.0 0.01 0.10 0.10 90 1014.8
20260906064104 58 148 0.0 0.0 0.01 0.10 0.10 90 1014.9
20260906064020 58 148 0.0 0.0 0.01 0.10 0.10 90 1015.0
20260906063104 58 148 0.0 0.0 0.01 0.10 0.10 90 1015.0
20260906063021 58 148 0.0 0.0 0.01 0.10 0.10 90 1015.1
20260906062604 58 148 0.0 0.0 0.01 0.10 0.10 90 1015.1
20260906062104 58 148 0.0 0.0 0.01 0.10 0.10 90 1015.1
20260906062020 58 148 0.0 0.0 0.00 0.09 0.09 90 1015.1
20260906061603 58 148 0.0 0.0 0.00 0.09 0.09 90 1015.1
20260906061021 58 148 0.0 0.0 0.00 0.09 0.09 90 1015.2
20260906060604 58 148 0.0 0.0 0.00 0.09 0.09 90 1015.2
20260906060104 58 148 0.0 0.0 0.00 0.09 0.09 90 1015.2
20260906060020 58 148 0.0 0.0 0.00 0.09 0.09 90 1015.0
20260906055604 58 148 0.0 0.0 0.00 0.09 0.09 90 1015.0
20260906055104 58 148 0.0 0.0 0.00 0.09 0.09 90 1015.1
20260906055020 58 148 0.0 0.0 0.00 0.09 0.09 90 1015.3
20260906054104 58 148 0.0 0.0 0.00 0.09 0.09 89 1015.3
20260906053604 58 148 0.0 0.0 0.00 0.09 0.09 89 1015.3
20260906053104 58 148 0.0 0.0 0.00 0.09 0.09 89 1015.3
20260906053020 58 148 0.0 0.0 0.00 0.09 0.09 89 1015.3
20260906052604 58 148 0.0 0.0 0.00 0.09 0.09 89 1015.3
20260906052104 58 148 0.0 0.0 0.00 0.09 0.09 89 1015.3
20260906052021 58 148 0.0 0.0 0.00 0.09 0.09 89 1015.2
20260906051604 58 148 0.0 0.0 0.00 0.09 0.09 89 1015.2
20260906051021 58 148 0.0 0.0 0.00 0.09 0.09 89 1015.4
20260906050604 58 148 0.0 0.0 0.00 0.09 0.09 89 1015.4
20260906050104 58 148 0.0 0.0 0.00 0.09 0.09 89 1015.4
20260906050021 58 148 0.0 0.0 0.00 0.09 0.09 89 1015.5
20260906045104 59 148 0.0 0.0 0.00 0.09 0.09 88 1015.4
20260906045021 59 118 0.0 0.0 0.00 0.09 0.09 88 1015.5
20260906044604 59 118 0.0 0.0 0.00 0.09 0.09 88 1015.5
20260906044104 59 118 0.0 0.0 0.00 0.09 0.09 88 1015.5
20260906044021 59 118 0.0 0.0 0.00 0.09 0.09 88 1015.5
20260906043604 59 118 0.0 0.0 0.00 0.09 0.09 88 1015.5
20260906043104 59 118 0.0 0.0 0.00 0.09 0.09 88 1015.5
20260906042604 59 118 0.0 0.0 0.00 0.09 0.09 88 1015.4
20260906042103 59 118 0.0 0.0 0.00 0.09 0.09 88 1015.3
20260906041104 59 118 0.0 0.0 0.00 0.09 0.09 88 1015.3
20260906041020 59 118 0.0 0.0 0.00 0.09 0.09 88 1015.3
20260906040604 59 118 0.0 0.0 0.00 0.09 0.09 88 1015.3
20260906040103 59 118 0.0 0.0 0.00 0.09 0.09 88 1015.2
20260906040021 59 118 0.0 0.0 0.00 0.09 0.09 88 1015.2
20260906035604 59 118 0.0 0.0 0.00 0.09 0.09 88 1015.2
20260906035103 60 118 0.0 0.0 0.00 0.09 0.09 88 1015.1
20260906035021 60 118 0.0 0.0 0.00 0.09 0.09 88 1014.9
20260906034104 60 118 0.0 0.0 0.01 0.09 0.09 88 1014.8
20260906034020 60 118 0.0 0.0 0.01 0.09 0.09 88 1014.8
20260906033603 60 118 0.0 0.0 0.01 0.09 0.09 88 1014.8
20260906033020 60 114 0.0 0.0 0.02 0.09 0.09 88 1014.7
20260906032604 60 114 0.0 0.0 0.02 0.09 0.09 88 1014.7
20260906032103 60 94 0.0 3.0 0.03 0.09 0.09 87 1014.4
20260906032021 60 71 0.0 0.0 0.03 0.09 0.09 87 1014.6
20260906031604 60 71 0.0 0.0 0.03 0.09 0.09 87 1014.6
20260906031103 60 261 0.0 0.0 0.05 0.09 0.09 87 1014.6
20260906031020 60 261 0.0 0.0 0.06 0.09 0.09 86 1014.6
20260906030604 60 261 0.0 0.0 0.06 0.09 0.09 86 1014.6
20260906030104 60 260 0.0 0.0 0.07 0.09 0.09 86 1014.5
20260906030021 60 260 0.0 0.0 0.08 0.09 0.09 85 1014.4
20260906025105 60 260 0.0 0.0 0.09 0.09 0.09 85 1014.4
20260906025021 60 260 0.0 0.0 0.09 0.09 0.09 85 1014.5
20260906024603 60 260 0.0 0.0 0.09 0.09 0.09 85 1014.5
20260906024103 60 261 0.0 0.0 0.08 0.08 0.08 84 1014.4
20260906024021 61 329 0.0 0.0 0.08 0.08 0.08 83 1014.0
20260906023604 61 329 0.0 0.0 0.08 0.08 0.08 83 1014.0
20260906023103 61 223 0.0 0.0 0.07 0.07 0.07 82 1014.0
20260906023023 61 223 0.0 0.0 0.07 0.07 0.07 82 1014.0
20260906022604 61 223 0.0 0.0 0.07 0.07 0.07 82 1014.0
20260906022104 61 223 0.0 0.0 0.06 0.06 0.06 80 1014.0
20260906022021 61 223 0.0 0.0 0.06 0.06 0.06 80 1014.1
20260906021603 61 223 0.0 0.0 0.06 0.06 0.06 80 1014.1
20260906021104 62 224 0.0 3.0 0.04 0.04 0.04 78 1014.0
20260906021021 62 232 2.0 9.0 0.03 0.03 0.03 75 1013.9
20260906020604 62 232 2.0 9.0 0.03 0.03 0.03 75 1013.9
20260906020104 63 230 2.0 10.0 0.02 0.02 0.02 73 1013.6
20260906020023 64 233 3.0 15.0 0.01 0.01 0.01 70 1013.3
20260906015604 64 233 3.0 15.0 0.01 0.01 0.01 70 1013.3
20260906015104 65 223 3.0 12.0 0.00 0.00 0.00 67 1013.2
20260906015020 66 219 3.0 12.0 0.00 0.00 0.00 64 1013.1
20260906014104 67 214 1.0 5.0 0.00 0.00 0.00 61 1012.9
20260906014021 68 224 3.0 6.0 0.00 0.00 0.00 58 1012.8
20260906013603 68 224 3.0 6.0 0.00 0.00 0.00 58 1012.8
20260906013103 69 221 2.0 5.0 0.00 0.00 0.00 54 1012.7
20260906013023 70 223 2.0 5.0 0.00 0.00 0.00 53 1012.7
20260906012604 70 223 2.0 5.0 0.00 0.00 0.00 53 1012.7
20260906012104 71 245 1.0 6.0 0.00 0.00 0.00 49 1012.5
20260906011603 71 264 0.0 0.0 0.00 0.00 0.00 47 1012.4
20260906011104 71 264 0.0 0.0 0.00 0.00 0.00 47 1012.4
20260906011021 71 266 0.0 0.0 0.00 0.00 0.00 48 1012.3
20260906010104 71 273 0.0 0.0 0.00 0.00 0.00 46 1012.3
20260906010023 71 269 0.0 0.0 0.00 0.00 0.00 48 1012.4
20260906005603 71 269 0.0 0.0 0.00 0.00 0.00 48 1012.4
20260906005104 71 351 0.0 0.0 0.00 0.00 0.00 47 1012.3
20260906005020 71 355 0.0 0.0 0.00 0.00 0.00 46 1012.3
20260906004604 71 355 0.0 0.0 0.00 0.00 0.00 46 1012.3
20260906004020 71 348 0.0 0.0 0.00 0.00 0.00 47 1012.3
20260906003103 72 349 0.0 0.0 0.00 0.00 0.00 47 1012.3
20260906002603 72 348 0.0 0.0 0.00 0.00 0.00 49 1012.4
20260906002104 72 348 0.0 0.0 0.00 0.00 0.00 48 1012.4
20260906002020 72 348 0.0 0.0 0.00 0.00 0.00 47 1012.5
20260906001604 72 348 0.0 0.0 0.00 0.00 0.00 47 1012.5
20260906001104 72 348 0.0 0.0 0.00 0.00 0.00 47 1012.4
20260906001020 72 348 0.0 0.0 0.00 0.00 0.00 47 1012.4
20260906000603 72 348 0.0 0.0 0.00 0.00 0.00 47 1012.4
20260906000022 72 0 0.0 0.0 0.00 0.00 0.00 47 1012.4
20260905235103 72 0 0.0 0.0 0.00 0.00 0.00 46 1012.3
20260905235021 72 356 0.0 0.0 0.00 0.00 0.00 46 1012.4
20260905234603 72 356 0.0 0.0 0.00 0.00 0.00 46 1012.4
20260905234104 72 0 0.0 0.0 0.00 0.00 0.00 46 1012.3
20260905233604 72 298 0.0 2.0 0.00 0.00 0.00 46 1012.3
20260905233104 72 344 0.0 0.0 0.00 0.00 0.00 47 1012.4
20260905233023 72 5 1.0 5.0 0.00 0.00 0.00 46 1012.4
20260905232604 72 5 1.0 5.0 0.00 0.00 0.00 46 1012.4
20260905232104 72 355 0.0 3.0 0.00 0.00 0.00 47 1012.4
20260905232022 72 355 1.0 6.0 0.00 0.00 0.00 46 1012.5
20260905231603 72 355 1.0 6.0 0.00 0.00 0.00 46 1012.5
20260905231105 72 355 2.0 6.0 0.00 0.00 0.00 47 1012.6
20260905225604 72 10 0.0 8.0 0.00 0.00 0.00 47 1012.6
20260905225104 72 354 2.0 5.0 0.00 0.00 0.00 48 1012.6
20260905225020 72 313 0.0 3.0 0.00 0.00 0.00 47 1012.7
20260905224104 73 357 2.0 8.0 0.00 0.00 0.00 47 1012.7
20260905224019 73 3 0.0 7.0 0.00 0.00 0.00 48 1012.7
20260905223604 73 3 0.0 7.0 0.00 0.00 0.00 48 1012.7
20260905223104 73 347 1.0 5.0 0.00 0.00 0.00 47 1012.8
20260905223022 73 309 2.0 3.0 0.00 0.00 0.00 48 1012.9
20260905222604 73 309 2.0 3.0 0.00 0.00 0.00 48 1012.9
20260905222020 73 0 1.0 8.0 0.00 0.00 0.00 49 1012.9
20260905221604 73 0 1.0 8.0 0.00 0.00 0.00 49 1012.9
20260905221104 73 3 3.0 8.0 0.00 0.00 0.00 46 1013.1
20260905221020 73 357 0.0 3.0 0.00 0.00 0.00 48 1013.0
20260905220604 73 357 0.0 3.0 0.00 0.00 0.00 48 1013.0
20260905220104 73 250 0.0 0.0 0.00 0.00 0.00 46 1013.1
20260905220021 73 208 0.0 2.0 0.00 0.00 0.00 43 1013.1
20260905215604 73 208 0.0 2.0 0.00 0.00 0.00 43 1013.1
20260905215103 74 351 1.0 5.0 0.00 0.00 0.00 45 1013.2
20260905214603 75 4 3.0 8.0 0.00 0.00 0.00 43 1013.2
20260905214103 75 3 2.0 7.0 0.00 0.00 0.00 45 1013.3
20260905214020 74 349 1.0 6.0 0.00 0.00 0.00 45 1013.3
20260905213103 74 232 1.0 8.0 0.00 0.00 0.00 44 1013.3
20260905213021 75 349 3.0 9.0 0.00 0.00 0.00 42 1013.3
20260905212103 73 210 1.0 3.0 0.00 0.00 0.00 44 1013.3
20260905211104 72 253 0.0 6.0 0.00 0.00 0.00 46 1013.4
20260905211019 73 264 1.0 3.0 0.00 0.00 0.00 44 1013.5
20260905210603 73 264 1.0 3.0 0.00 0.00 0.00 44 1013.5
20260905210104 74 310 1.0 5.0 0.00 0.00 0.00 44 1013.5
20260905210021 74 23 2.0 3.0 0.00 0.00 0.00 45 1013.6
20260905205603 74 23 2.0 3.0 0.00 0.00 0.00 45 1013.6
20260905205104 73 229 1.0 3.0 0.00 0.00 0.00 45 1013.6
20260905205020 73 1 1.0 5.0 0.00 0.00 0.00 47 1013.6
20260905204604 73 1 1.0 5.0 0.00 0.00 0.00 47 1013.6
20260905204104 73 330 1.0 3.0 0.00 0.00 0.00 47 1013.7
20260905203604 73 342 1.0 3.0 0.00 0.00 0.00 46 1013.7
20260905203104 72 333 1.0 3.0 0.00 0.00 0.00 50 1013.8
20260905203022 72 310 2.0 7.0 0.00 0.00 0.00 47 1013.8
20260905202604 72 310 2.0 7.0 0.00 0.00 0.00 47 1013.8
20260905202020 72 358 3.0 8.0 0.00 0.00 0.00 47 1014.0
20260905201604 72 358 3.0 8.0 0.00 0.00 0.00 47 1014.0
20260905201019 72 2 2.0 3.0 0.00 0.00 0.00 49 1014.0
20260905200604 72 2 2.0 3.0 0.00 0.00 0.00 49 1014.0
20260905200104 71 347 2.0 5.0 0.00 0.00 0.00 51 1014.2
20260905200022 71 318 0.0 2.0 0.00 0.00 0.00 55 1014.1
20260905195604 71 318 0.0 2.0 0.00 0.00 0.00 55 1014.1
20260905195104 70 106 0.0 3.0 0.00 0.00 0.00 51 1014.2
20260905194603 70 79 2.0 7.0 0.00 0.00 0.00 50 1014.3
20260905194020 68 169 0.0 3.0 0.00 0.00 0.00 58 1014.5
20260905193604 68 169 0.0 3.0 0.00 0.00 0.00 58 1014.5
20260905193104 68 117 2.0 3.0 0.00 0.00 0.00 56 1014.7
20260905193022 68 332 1.0 5.0 0.00 0.00 0.00 56 1014.6
20260905192604 68 332 1.0 5.0 0.00 0.00 0.00 56 1014.6
20260905192103 68 11 2.0 5.0 0.00 0.00 0.00 56 1014.7
20260905192019 68 34 0.0 2.0 0.00 0.00 0.00 60 1014.8
20260905191604 68 34 0.0 2.0 0.00 0.00 0.00 60 1014.8
20260905191104 66 51 0.0 0.0 0.00 0.00 0.00 58 1015.0
20260905191020 67 262 1.0 3.0 0.00 0.00 0.00 58 1015.0
20260905190104 67 5 2.0 5.0 0.00 0.00 0.00 58 1015.1
20260905185603 66 30 1.0 7.0 0.00 0.00 0.00 61 1015.1
20260905185104 65 325 0.0 3.0 0.00 0.00 0.00 64 1015.1
20260905185020 65 312 0.0 0.0 0.00 0.00 0.00 65 1015.1
20260905184604 65 312 0.0 0.0 0.00 0.00 0.00 65 1015.1
20260905184103 65 351 0.0 0.0 0.00 0.00 0.00 62 1015.2
20260905184019 65 244 0.0 3.0 0.00 0.00 0.00 64 1015.2
20260905183603 65 244 0.0 3.0 0.00 0.00 0.00 64 1015.2
20260905183104 63 261 0.0 3.0 0.00 0.00 0.00 66 1015.3
20260905183022 63 288 2.0 6.0 0.00 0.00 0.00 64 1015.3
20260905182603 63 288 2.0 6.0 0.00 0.00 0.00 64 1015.3
20260905182103 64 343 4.0 9.0 0.00 0.00 0.00 64 1015.3
20260905182020 63 355 0.0 1.0 0.00 0.00 0.00 65 1015.4
20260905181604 63 355 0.0 1.0 0.00 0.00 0.00 65 1015.4
20260905181104 63 351 3.0 5.0 0.00 0.00 0.00 63 1015.5
20260905181020 64 19 2.0 5.0 0.00 0.00 0.00 64 1015.6
20260905180604 64 19 2.0 5.0 0.00 0.00 0.00 64 1015.6
20260905180104 64 346 1.0 5.0 0.00 0.00 0.00 64 1015.6
20260905180022 64 0 3.0 6.0 0.00 0.00 0.00 64 1015.7
20260905175604 64 0 3.0 6.0 0.00 0.00 0.00 64 1015.7
20260905175104 64 7 0.0 0.0 0.00 0.00 0.00 64 1015.7
20260905175020 63 11 0.0 3.0 0.00 0.00 0.00 67 1015.8
20260905174604 63 11 0.0 3.0 0.00 0.00 0.00 67 1015.8
20260905174104 63 28 0.0 3.0 0.00 0.00 0.00 66 1015.9
20260905173603 63 351 3.0 6.0 0.00 0.00 0.00 66 1015.9
20260905172104 62 5 0.0 1.0 0.00 0.00 0.00 68 1016.0
20260905172019 61 5 1.0 2.0 0.00 0.00 0.00 68 1016.0
20260905171604 61 5 1.0 2.0 0.00 0.00 0.00 68 1016.0
20260905171103 61 0 1.0 3.0 0.00 0.00 0.00 70 1016.0
20260905171020 61 0 0.0 0.0 0.00 0.00 0.00 70 1016.0
20260905170604 61 0 0.0 0.0 0.00 0.00 0.00 70 1016.0
20260905170104 60 0 1.0 3.0 0.00 0.00 0.00 71 1016.0
20260905170022 60 286 0.0 0.0 0.00 0.00 0.00 72 1016.0
20260905165604 60 286 0.0 0.0 0.00 0.00 0.00 72 1016.0
20260905165020 60 355 1.0 3.0 0.00 0.00 0.00 73 1016.3
20260905164604 60 355 1.0 3.0 0.00 0.00 0.00 73 1016.3
20260905163103 58 27 1.0 3.0 0.00 0.00 0.00 75 1016.5
20260905163022 58 25 0.0 3.0 0.00 0.00 0.00 76 1016.4
20260905162604 58 25 0.0 3.0 0.00 0.00 0.00 76 1016.4
20260905161603 58 89 0.0 0.0 0.00 0.00 0.00 77 1016.5
20260905161104 57 97 0.0 3.0 0.00 0.00 0.00 77 1016.6
20260905160604 57 112 1.0 3.0 0.00 0.00 0.00 78 1016.6
20260905155604 57 115 0.0 0.0 0.00 0.00 0.00 79 1016.7
20260905155104 56 115 0.0 0.0 0.00 0.00 0.00 80 1016.6
20260905155020 56 117 0.0 0.0 0.00 0.00 0.00 80 1016.6
20260905154019 55 163 0.0 0.0 0.00 0.00 0.00 83 1016.6
20260905153603 55 163 0.0 0.0 0.00 0.00 0.00 83 1016.6
20260905153104 54 163 0.0 0.0 0.00 0.00 0.00 83 1016.6
20260905152604 54 163 0.0 0.0 0.00 0.00 0.00 85 1016.6
20260905152104 53 163 0.0 0.0 0.00 0.00 0.00 87 1016.6
20260905152020 53 163 0.0 0.0 0.00 0.00 0.00 87 1016.6
20260905151604 53 163 0.0 0.0 0.00 0.00 0.00 87 1016.6
20260905151103 52 163 0.0 0.0 0.00 0.00 0.00 88 1016.6
20260905151019 52 163 0.0 0.0 0.00 0.00 0.00 89 1016.6
20260905150603 52 163 0.0 0.0 0.00 0.00 0.00 89 1016.6
20260905150103 51 163 0.0 0.0 0.00 0.00 0.00 90 1016.7
20260905150021 50 163 0.0 0.0 0.00 0.00 0.00 90 1016.7
20260905145604 50 163 0.0 0.0 0.00 0.00 0.00 90 1016.7
20260905145103 50 163 0.0 0.0 0.00 0.00 0.00 90 1016.8
20260905145020 49 163 0.0 0.0 0.00 0.00 0.00 90 1016.9
20260905144604 49 163 0.0 0.0 0.00 0.00 0.00 90 1016.9
20260905144104 49 163 0.0 0.0 0.00 0.00 0.00 90 1016.9
20260905143604 48 163 0.0 0.0 0.00 0.00 0.00 90 1016.8
20260905143021 47 163 0.0 0.0 0.00 0.00 0.00 90 1016.8
20260905142603 47 163 0.0 0.0 0.00 0.00 0.00 90 1016.8
20260905142104 47 163 0.0 0.0 0.00 0.00 0.00 90 1016.7
20260905141603 47 163 0.0 0.0 0.00 0.00 0.00 90 1016.7
20260905141020 47 163 0.0 0.0 0.00 0.00 0.00 89 1016.6
20260905140104 47 163 0.0 0.0 0.00 0.00 0.00 89 1016.5
20260905140021 47 163 0.0 0.0 0.00 0.00 0.00 89 1016.5
20260905135604 47 163 0.0 0.0 0.00 0.00 0.00 89 1016.5
20260905135104 47 163 0.0 0.0 0.00 0.00 0.00 89 1016.5
20260905134604 47 163 0.0 0.0 0.00 0.00 0.00 89 1016.5
20260905134104 47 163 0.0 0.0 0.00 0.00 0.00 88 1016.5
20260905133604 47 163 0.0 0.0 0.00 0.00 0.00 88 1016.5
20260905133103 48 163 0.0 0.0 0.00 0.00 0.00 88 1016.4
20260905133020 48 163 0.0 0.0 0.00 0.00 0.00 88 1016.4
20260905132604 48 163 0.0 0.0 0.00 0.00 0.00 88 1016.4
20260905132103 48 163 0.0 0.0 0.00 0.00 0.00 88 1016.4
20260905132019 48 163 0.0 0.0 0.00 0.00 0.00 88 1016.4
20260905131603 48 163 0.0 0.0 0.00 0.00 0.00 88 1016.4
20260905131104 48 163 0.0 0.0 0.00 0.00 0.00 89 1016.3
20260905131020 48 163 0.0 0.0 0.00 0.00 0.00 88 1016.3
20260905130603 48 163 0.0 0.0 0.00 0.00 0.00 88 1016.3
20260905130104 49 163 0.0 0.0 0.00 0.00 0.00 88 1016.3
20260905130020 49 163 0.0 0.0 0.00 0.00 0.00 88 1016.3
20260905125603 49 163 0.0 0.0 0.00 0.00 0.00 88 1016.3
20260905125020 49 163 0.0 0.0 0.00 0.00 0.00 88 1016.2
20260905124104 49 163 0.0 0.0 0.00 0.00 0.00 88 1016.2
20260905124019 49 163 0.0 0.0 0.00 0.00 0.00 89 1016.3
20260905123604 49 163 0.0 0.0 0.00 0.00 0.00 89 1016.3
20260905123104 50 163 0.0 0.0 0.00 0.00 0.00 89 1016.4
20260905123020 50 163 0.0 0.0 0.00 0.00 0.00 89 1016.4
20260905122604 50 163 0.0 0.0 0.00 0.00 0.00 89 1016.4
20260905122103 50 163 0.0 0.0 0.00 0.00 0.00 89 1016.4
20260905122020 50 163 0.0 0.0 0.00 0.00 0.00 89 1016.4
20260905121604 50 163 0.0 0.0 0.00 0.00 0.00 89 1016.4
20260905121103 50 163 0.0 0.0 0.00 0.00 0.00 89 1016.4
20260905121019 50 163 0.0 0.0 0.00 0.00 0.00 89 1016.5
20260905120604 50 163 0.0 0.0 0.00 0.00 0.00 89 1016.5
20260905120104 50 163 0.0 0.0 0.00 0.00 0.00 89 1016.5
20260905120020 50 163 0.0 0.0 0.00 0.00 0.00 89 1016.6
20260905115604 50 163 0.0 0.0 0.00 0.00 0.00 89 1016.6
20260905115103 50 163 0.0 0.0 0.00 0.00 0.00 89 1016.5
20260905115020 50 163 0.0 0.0 0.00 0.00 0.00 89 1016.5
20260905114604 50 163 0.0 0.0 0.00 0.00 0.00 89 1016.5
20260905114104 50 163 0.0 0.0 0.00 0.00 0.00 89 1016.4
20260905114020 50 163 0.0 0.0 0.00 0.00 0.00 89 1016.4
20260905113604 50 163 0.0 0.0 0.00 0.00 0.00 89 1016.4
20260905113103 50 163 0.0 0.0 0.00 0.00 0.00 89 1016.4
20260905113019 50 163 0.0 0.0 0.00 0.00 0.00 88 1016.3
20260905112104 50 163 0.0 0.0 0.00 0.00 0.00 88 1016.3
20260905111603 50 163 0.0 0.0 0.00 0.00 0.00 88 1016.3
20260905111104 50 163 0.0 0.0 0.00 0.00 0.00 88 1016.3
20260905111020 50 163 0.0 0.0 0.00 0.00 0.00 88 1016.2
20260905110604 50 163 0.0 0.0 0.00 0.00 0.00 88 1016.2
20260905110104 50 163 0.0 0.0 0.00 0.00 0.00 88 1016.2
20260905110020 50 163 0.0 0.0 0.00 0.00 0.00 88 1016.2
20260905105603 50 163 0.0 0.0 0.00 0.00 0.00 88 1016.2
20260905105104 50 163 0.0 0.0 0.00 0.00 0.00 88 1016.2
20260905104603 50 163 0.0 0.0 0.00 0.00 0.00 87 1016.3
20260905104104 50 163 0.0 0.0 0.00 0.00 0.00 87 1016.2
20260905103604 50 163 0.0 0.0 0.00 0.00 0.00 87 1016.3
20260905103104 50 163 0.0 0.0 0.00 0.00 0.00 87 1016.2
20260905102603 50 163 0.0 0.0 0.00 0.00 0.00 87 1016.3
20260905102019 50 163 0.0 0.0 0.00 0.00 0.00 87 1016.2
20260905101604 50 163 0.0 0.0 0.00 0.00 0.00 87 1016.2
20260905101103 50 163 0.0 0.0 0.00 0.00 0.00 87 1016.2
20260905101020 50 163 0.0 0.0 0.00 0.00 0.00 87 1016.2
20260905100604 50 163 0.0 0.0 0.00 0.00 0.00 87 1016.2
20260905100104 50 163 0.0 0.0 0.00 0.00 0.00 87 1016.2
20260905100020 50 163 0.0 0.0 0.00 0.00 0.00 87 1016.2
20260905095604 50 163 0.0 0.0 0.00 0.00 0.00 87 1016.2
20260905095104 50 163 0.0 0.0 0.00 0.00 0.00 86 1016.2
20260905095019 50 163 0.0 0.0 0.00 0.00 0.00 86 1016.2
20260905094603 50 163 0.0 0.0 0.00 0.00 0.00 86 1016.2
20260905093604 50 163 0.0 0.0 0.00 0.00 0.00 86 1016.2
20260905093103 50 163 0.0 0.0 0.00 0.00 0.00 86 1016.1
20260905093020 50 163 0.0 0.0 0.00 0.00 0.00 86 1016.0
20260905092603 50 163 0.0 0.0 0.00 0.00 0.00 86 1016.0
20260905092019 50 163 0.0 0.0 0.00 0.00 0.00 85 1016.2
20260905091604 50 163 0.0 0.0 0.00 0.00 0.00 85 1016.2
20260905091019 50 163 0.0 0.0 0.00 0.00 0.00 85 1016.2
20260905090604 50 163 0.0 0.0 0.00 0.00 0.00 85 1016.2
20260905090104 51 163 0.0 0.0 0.00 0.00 0.00 85 1016.3
20260905085603 51 163 0.0 0.0 0.00 0.00 0.00 85 1016.3
20260905085104 51 163 0.0 0.0 0.00 0.00 0.00 85 1016.2
20260905085019 51 163 0.0 0.0 0.00 0.00 0.00 84 1016.2
20260905084604 51 163 0.0 0.0 0.00 0.00 0.00 84 1016.2
20260905084020 51 163 0.0 0.0 0.00 0.00 0.00 84 1016.2
20260905083604 51 163 0.0 0.0 0.00 0.00 0.00 84 1016.2
20260905082604 51 163 0.0 0.0 0.00 0.00 0.00 83 1016.2